Tracking 35237 objects as of 5-Sep-2026
HD Live streaming from Space Station
objects crossing your sky now

SALYUT 7 DEB


SALYUT 7 DEB is no longer on orbit


NORAD ID: 14862
Int'l Code: 1982-033AX
Launch date: April 19, 1982
Source: Commonwealth of Independent States (former USSR) (CIS)
Launch site: TYURATAM MISSILE AND SPACE COMPLEX (TTMTR)
Decay date: 1984-04-13

Note: This is SATELLITE DEBRIS
Your satellite tracking list
Your tracking list is empty




NASA's NSSDC Master Catalog

Two Line Element Set (TLE):
1 14862U 82033 AX 84086.37258956  .00029800 +00000-0 +74508-4 0  9995
2 14862 051.6093 082.1574 0008307 208.6250 160.1269 15.95220113111833
Source of the keplerian elements: AFSPC